Погода в Бардо

Польша     50°30′01″N   16°44′22″E
темп.,
°C
ветер,
м/с
пор.,
м/с
влажн.,
%
обл.,
%
осадки,
мм/ч
давл.,
гПа
погр.,
м
2 марта, вт
вт201:00+2юз11870 0.0 103622
04:00+1юз12870 0.0 103522
07:00+2юз22840 0.0 103623
10:00+8зюз22620 0.0 1035230
13:00+13з12470 0.0 1034524
16:00+12св11560 0.0 103359
19:00+6ю01740 0.0 103422
22:00+5юз12740 0.0 103422
3 марта, ср
ср301:00+4юз12730 0.0 103422
04:00+3юз22740 0.0 103222
07:00+2юз22730 0.0 103226
10:00+9зюз23560 0.0 1030257
13:00+12зюз344417 0.0 1028618
16:00+11юз365414 0.0 1025664
19:00+5зюз34797 0.0 102580
22:00+4юз33820 0.0 102475
4 марта, чт
чт401:00+4юз338419 0.0 102364
04:00+4юз348772 0.0 102090
07:00+3юз368878 0.0 1019143
10:00+8зюз487296 0.0 1017522
13:00+11з486693 0.0 1016823
16:00+10з367099 0.0 1013814
19:00+6с369099 1.1 1014393
22:00+5с2493100 2.6 1014345
5 марта, пт
пт501:00+3ссв2397100 3.8 1015312
04:00+1ссв3596100 0.8 1015298
07:000св4797100 1.8 1016384
10:00−1ссв5888100 1.6 1019736
13:00+1ссв686398 1.8 10211388
16:00+1ссв585955 0.1 10221629
19:00−2ссз387560 0.3 1025225
22:00−2сз397382 0.1 1027402
6 марта, сб
сб601:00−3сз268042 0.1 1029269
04:00−4сз24830 0.0 1030249
07:00−4сз268519 0.0 1032448
10:000ссз345323 0.0 10331107
13:00+1сз344734 0.0 10331635
16:00+1сз354780 0.0 10321518
19:00−2з226340 0.0 103250
22:00−3юз23660 0.0 103255